Погода в Орявчике

Украина / Львовская область     48°58′06″N   23°15′42″E
темп.,
°C
ветер,
м/с
пор.,
м/с
влажн.,
%
обл.,
%
осадки,
мм/ч
давл.,
гПа
погр.,
м
16 сентября, чт
чт1600:00+12ююв2285100 0.0 101831
03:00+11ю228832 0.0 101831
06:00+11ю238736 0.0 101745
09:00+15ю2575100 0.0 1016128
12:00+20ююз4854100 0.0 1016764
15:00+22юз5846100 0.0 10151128
18:00+20ююз5958100 0.0 1014959
21:00+15ю3984100 0.4 1014260
17 сентября, пт
пт1700:00+14ю3118945 0.4 1013322
03:00+13ююз229498 0.6 101242
06:00+12ююз2296100 0.0 101130
09:00+14ююз239196 0.0 1011171
12:00+14ююв1398100 2.8 1009198
15:00+14вюв1399100 12.6 1007233
18:00+12сз3798100 9.7 1007597
21:00+10сз2998100 14.6 1010707
18 сентября, сб
сб1800:00+10сз2897100 0.6 1011635
03:00+10зсз2594100 0.6 1011417
06:00+9з159580 0.3 1011287
09:00+9з279152 0.3 1011682
12:00+12зсз467086 0.1 10111184
15:00+12зюз3570100 0.2 10111052
18:00+11зюз2481100 0.1 1011447
21:00+9зюз119190 0.3 101232
19 сентября, вс
вс1900:00+9ююз2592100 0.1 1012254
03:00+8юз2791100 0.2 1011602
06:00+7сз2598100 2.2 1011398
09:00+5ссз2597100 5.2 1013411
12:00+4сз1696100 0.3 1015692
15:00+5сз2592100 0.4 1015903
18:00+4сз2595100 0.3 1015876
21:00+3зсз1697100 0.6 1015846
20 сентября, пн
пн2000:00+3зсз1698100 0.3 1015675
03:00+3з1798100 0.4 1015630
06:00+4з1899100 0.2 1015643
09:00+4з1798100 0.6 1015576
12:00+4зсз1798100 0.3 1017705
15:00+4сз2697100 0.5 1017805
18:00+3зсз1798100 0.3 1019835
21:00+3сз2698100 0.6 1020845